276P/Vorobjov (2001)

Japanese version
Home page
Updated on January 5, 2013

---------------------------------------------------------------------

* Profile

* Orbital Elements

Epoch 2001 Jan. 11.0 TT = JDT 2451920.5
T 2001 Jan. 25.95682 TT                                 MPC
q   3.9948244            (2000.0)            P               Q
n   0.07754935     Peri.  213.40513     +0.35599382     -0.92235404
a   5.4460788      Node   216.39069     +0.90320566     +0.38082194
e   0.2664769      Incl.   14.65539     +0.23976641     -0.06509749
P  12.7
From 136 observations 2000 Dec. 19-2012 Dec. 18, mean residual 0".4.

* Magnitudes Graph

        m1 = 5.0 + 5 log d + 20.0 log r

---------------------------------------------------------------------

The orbital elements are published on M.P.E.C. 2012-Y39.
The magnitudes graphs are made with Comet for Windows.

---------------------------------------------------------------------

Copyright(C) Seiichi Yoshida (comet@aerith.net). All rights reserved.